Regional Weather Roundup
Issued by NWS

Home | Current Version | Previous Version | Graphics & Text | Print | Product List | Glossary On
Versions: 1 2 3 4 5 6 7 8 9 10 11 12 13 14 15 16 17 18 19 20 21 22 23 24 25 26 27 28 29 30 31 32 33 34 35 36 37 38 39 40 41 42 43 44 45 46 47 48 49 50
000
ASUS43 KFSD 222102
RWRSD

WEATHER ROUNDUP FOR SOUTH DAKOTA
NATIONAL WEATHER SERVICE SIOUX FALLS SD
300 PM CST THU FEB 22 2018

NOTE: "FAIR" INDICATES FEW OR NO CLOUDS BELOW 12,000 FEET WITH NO
SIGNIFICANT WEATHER AND/OR OBSTRUCTIONS TO VISIBILITY.


SDZ001>005-009-010-012>017-222200-
NORTHWEST AND NORTH CENTRAL SOUTH DAKOTA

CITY           SKY/WX    TMP DP  RH WIND       PRES   REMARKS
BUFFALO          N/A      7  -1  70 CALM      30.02F
FAITH            N/A      3  -1  83 NE6       30.11F WCI  -8
MOBRIDGE       PTSUNNY   20  14  77 S7        30.17F WCI  11
$$

SDZ012>016-024>037-041>051-057-063-072>074-222200-
SOUTHWEST AND SOUTH CENTRAL SOUTH DAKOTA

CITY           SKY/WX    TMP DP  RH WIND       PRES   REMARKS
RAPID CTY ARPT CLOUDY    13   6  74 N6        30.04F WCI   4
PIERRE         LGT SNOW  22  20  92 E10       30.16F FOG     WCI  11
CUSTER         PTSUNNY   28   7  41 W9        29.88F WCI  19
ELLSWORTH AFB  CLOUDY    12   3  68 N7        30.03F WCI   1
PHILIP         LGT SNOW  18  13  80 NE9       30.12F WCI   7
PINE RIDGE     CLOUDY    25  19  78 SW3       30.02F
SPEARFISH        N/A     18   7  62 W7        30.02S WCI   8
WINNER         LGT SNOW  25  20  81 SE8       30.13F WCI  16
$$

SDZ004>011-016>023-039-040-222200-
NORTHEAST SOUTH DAKOTA

CITY           SKY/WX    TMP DP  RH WIND       PRES   REMARKS
ABERDEEN       CLOUDY    26  20  77 S6        30.28F WCI  19
WATERTOWN      LGT SNOW  24  20  84 SE8       30.25F FOG     WCI  15
BROOKINGS      HVY SNOW  24  22  91 E9        30.27F VSB 1/4 WCI  14
SISSETON         N/A     23  17  78 SE9       30.32F WCI  13
$$

SDZ017-020-022-023-036>040-048>070-222200-
SOUTHEAST SOUTH DAKOTA

CITY           SKY/WX    TMP DP  RH WIND       PRES   REMARKS
SIOUX FALLS    FLURRIES  24  20  84 E12       30.26F WCI  13
HURON          LGT SNOW  23  21  92 SE7       30.25F VSB 3/4 WCI  15
CHAMBERLAIN    LGT SNOW  24  23  93 E9        30.18F VSB 1   WCI  15
MITCHELL       LGT SNOW  23  20  88 E12       30.25F VSB 1   WCI  12
$$

ABBREVIATIONS USED IN REMARKS
   TC - TEMPERATURE IN CELSIUS
  WCI - WIND CHILL INDEX
   HX - HEAT INDEX
  VSB - VISIBILITY





USA.gov is the U.S. government's official web portal to all federal, state and local government web resources and services.